User: anonymous   Login
Location: Columbia
(38.9520°N, 92.3340°W)
Time: 00:19:40
(UTC-05:00)
Language:

Iridium 15 - Orbit

View from above orbital plane
View from above orbital plane
View from above satellite
View from above satellite

Ground track
Ground track

The orbit data is extracted from the following two-line orbital elements,

1 24869U 97034A   16176.50868838 -.00000024  00000-0 -15464-4 0  9991
2 24869  86.3967 171.6238 0002510  83.0965 277.0517 14.34254777992640
Epoch (UTC): 24 June 2016 12:12:30
Eccentricity: 0.0002510
inclination: 86.3967°
perigee height: 776 km
apogee height: 779 km
right ascension of ascending node: 171.6238°
argument of perigee: 83.0965°
revolutions per day: 14.34254777
mean anomaly at epoch: 277.0517°
orbit number at epoch: 99264

The dashed part of the orbit path shows where the satellite is in the earth's shadow,  

DLR